contact:dominique.lefevre@mio.osupytheas.fr, maurice.libes@osupytheas.fr, didier.mallarino@osupytheas.fr
Project:EMSO http://www.emso-fr.org/EMSO-France
Depth: 2436.0 m
Title:EMSO Ligure Ouest : Data MII capteur AQUADOPP
Date,Latitude,Longitude,X_East,Y_North,Z_Up,Amplitude_X,Amplitude_Y,Amplitude_Z,Batterie,SoundSpeed,Heading,Pitch,Roll,Pressure,TIS,Speed,Direction
, degrees North, degrees East, m.s-1, m.s-1,m.s-1, 1, 1, 1, Volt, m.s-1, degree, degree, degree, dbar, degree_C, m.s-1, degree
2022-07-27T00:04:03,42.805,6.029,0.022,-0.002,-0.006,102.0,103.0,100.0,13.4,1505.2,329.2,-0.7,1.8,2470.954,13.28,0.022,95.2
2022-07-27T00:07:03,42.805,6.029,0.001,-0.001,-0.009,101.0,104.0,101.0,13.3,1505.2,326.4,-0.8,1.8,2470.945,13.28,0.001,135.0
2022-07-27T00:10:03,42.805,6.029,0.005,0.006,-0.036,105.0,103.0,101.0,13.4,1505.2,320.6,-0.8,1.8,2470.908,13.29,0.007,39.8
2022-07-27T00:13:03,42.805,6.029,0.021,0.02,-0.026,101.0,102.0,100.0,13.4,1505.2,326.7,-0.7,1.8,2470.909,13.29,0.028,46.4
2022-07-27T00:16:03,42.805,6.029,0.02,0.004,-0.016,102.0,103.0,100.0,13.3,1505.2,324.5,-0.8,1.8,2470.894,13.29,0.02,78.7
2022-07-27T00:19:03,42.805,6.029,0.021,0.027,0.004,102.0,103.0,100.0,13.4,1505.2,332.4,-0.8,1.8,2470.925,13.29,0.034,37.9
2022-07-27T00:22:03,42.805,6.029,0.021,0.008,-0.002,101.0,104.0,101.0,13.4,1505.2,328.2,-0.8,1.8,2470.908,13.29,0.022,69.1
2022-07-27T00:25:03,42.805,6.029,0.018,0.003,-0.005,103.0,102.0,101.0,13.3,1505.2,320.6,-0.8,1.8,2470.897,13.29,0.018,80.5
2022-07-27T00:28:03,42.805,6.029,0.023,0.006,-0.024,101.0,103.0,102.0,13.4,1505.2,328.5,-0.8,1.8,2470.914,13.29,0.023,75.4
2022-07-27T00:31:03,42.805,6.029,0.039,-0.002,-0.03,103.0,102.0,100.0,13.3,1505.2,327.3,-0.8,1.8,2470.882,13.29,0.039,92.9
2022-07-27T00:34:03,42.805,6.029,0.02,0.001,-0.003,102.0,101.0,101.0,13.4,1505.2,328.3,-0.8,1.8,2470.867,13.29,0.02,87.1
2022-07-27T00:37:03,42.805,6.029,0.019,-0.007,-0.019,102.0,103.0,101.0,13.4,1505.2,331.3,-0.7,1.8,2470.896,13.29,0.02,110.2
2022-07-27T00:40:03,42.805,6.029,0.008,0.0,0.004,101.0,103.0,101.0,13.3,1505.2,328.3,-0.7,1.8,2470.908,13.29,0.008,90.0
2022-07-27T00:43:03,42.805,6.029,0.015,0.004,-0.032,103.0,102.0,100.0,13.4,1505.2,331.9,-0.8,1.8,2470.877,13.29,0.015,75.1
2022-07-27T00:46:03,42.805,6.029,0.023,0.0,-0.012,101.0,101.0,102.0,13.4,1505.2,320.2,-0.8,1.8,2470.868,13.29,0.023,90.0
2022-07-27T00:49:03,42.805,6.029,0.009,0.006,-0.029,102.0,102.0,101.0,13.4,1505.2,328.9,-0.8,1.8,2470.884,13.29,0.01,56.3
2022-07-27T00:52:03,42.805,6.029,0.017,0.017,-0.034,102.0,103.0,101.0,13.4,1505.2,323.2,-0.7,1.8,2470.894,13.29,0.024,45.0
2022-07-27T00:55:03,42.805,6.029,0.002,0.0,-0.021,102.0,101.0,101.0,13.4,1505.2,333.9,-0.8,1.8,2470.899,13.29,0.002,90.0
2022-07-27T00:58:03,42.805,6.029,0.028,0.004,-0.006,102.0,101.0,100.0,13.3,1505.2,320.1,-0.8,1.8,2470.862,13.29,0.028,81.9
2022-07-27T01:04:03,42.805,6.029,0.017,0.007,-0.004,103.0,104.0,101.0,13.3,1505.2,327.9,-0.8,1.9,2470.888,13.29,0.018,67.6
2022-07-27T01:07:03,42.805,6.029,0.015,0.013,-0.013,102.0,101.0,101.0,13.4,1505.2,329.5,-0.7,1.8,2470.873,13.29,0.019,49.1
2022-07-27T01:10:03,42.805,6.029,0.0,0.021,0.01,102.0,105.0,100.0,13.3,1505.2,319.9,-0.7,1.8,2470.876,13.29,0.021,0.0
2022-07-27T01:13:03,42.805,6.029,0.008,0.001,-0.002,102.0,103.0,101.0,13.4,1505.2,324.9,-0.8,1.8,2470.894,13.29,0.008,82.9
2022-07-27T01:16:03,42.805,6.029,0.025,-0.009,-0.036,103.0,101.0,100.0,13.4,1505.2,329.6,-0.7,1.8,2470.905,13.29,0.026,109.8
2022-07-27T01:19:03,42.805,6.029,0.0,-0.014,-0.065,101.0,102.0,100.0,13.3,1505.2,328.5,-0.7,1.8,2470.894,13.29,0.014,180.0
2022-07-27T01:22:03,42.805,6.029,0.006,-0.002,-0.016,103.0,101.0,100.0,13.4,1505.2,327.2,-0.8,1.8,2470.861,13.29,0.006,108.4
2022-07-27T01:25:03,42.805,6.029,0.001,0.005,-0.03,102.0,102.0,101.0,13.3,1505.2,323.3,-0.8,1.8,2470.892,13.29,0.005,11.3
2022-07-27T01:28:03,42.805,6.029,0.021,0.008,-0.016,102.0,105.0,101.0,13.3,1505.2,326.9,-0.8,1.8,2470.916,13.29,0.022,69.1
2022-07-27T01:31:03,42.805,6.029,0.004,0.014,-0.04,103.0,102.0,100.0,13.4,1505.2,322.3,-0.8,1.8,2470.903,13.29,0.014,15.9
2022-07-27T01:34:03,42.805,6.029,0.005,0.02,0.016,103.0,102.0,100.0,13.4,1505.2,329.5,-0.8,1.8,2470.85,13.29,0.02,14.0
2022-07-27T01:37:03,42.805,6.029,0.002,0.008,-0.03,104.0,103.0,100.0,13.4,1505.2,318.2,-0.7,1.8,2470.91,13.29,0.008,14.0
2022-07-27T01:40:03,42.805,6.029,0.024,-0.002,-0.006,100.0,101.0,102.0,13.4,1505.2,330.3,-0.8,1.8,2470.878,13.29,0.024,94.8
2022-07-27T01:43:03,42.805,6.029,0.004,0.014,-0.014,101.0,101.0,101.0,13.3,1505.2,329.0,-0.8,1.8,2470.879,13.29,0.014,15.9
2022-07-27T01:46:03,42.805,6.029,0.01,0.002,0.01,101.0,103.0,100.0,13.4,1505.2,332.4,-0.8,1.8,2470.843,13.29,0.01,78.7
2022-07-27T01:49:03,42.805,6.029,0.019,-0.011,-0.025,102.0,103.0,100.0,13.4,1505.2,328.8,-0.7,1.8,2470.901,13.29,0.021,120.1
2022-07-27T01:52:03,42.805,6.029,0.02,-0.004,-0.037,101.0,101.0,100.0,13.4,1505.2,331.7,-0.8,1.8,2470.886,13.29,0.02,101.3
2022-07-27T01:55:03,42.805,6.029,0.014,0.002,-0.006,103.0,102.0,101.0,13.4,1505.2,323.5,-0.8,1.8,2470.887,13.29,0.014,81.9
2022-07-27T01:58:03,42.805,6.029,0.019,0.004,-0.025,102.0,101.0,101.0,13.3,1505.2,329.7,-0.8,1.9,2470.894,13.29,0.019,78.1
2022-07-27T02:04:03,42.805,6.029,0.025,-0.024,-0.046,102.0,101.0,100.0,13.4,1505.2,328.4,-0.7,1.8,2470.895,13.28,0.034,133.8
2022-07-27T02:07:03,42.805,6.029,0.006,0.01,0.001,104.0,109.0,100.0,13.4,1505.2,334.1,-0.8,1.8,2470.926,13.29,0.011,31.0
2022-07-27T02:10:03,42.805,6.029,0.013,0.006,-0.021,101.0,101.0,100.0,13.4,1505.2,329.1,-0.7,1.8,2470.904,13.29,0.014,65.2
2022-07-27T02:13:03,42.805,6.029,0.005,0.029,-0.013,101.0,103.0,101.0,13.4,1505.2,330.2,-0.8,1.8,2470.934,13.29,0.029,9.8
2022-07-27T02:16:03,42.805,6.029,0.019,-0.007,-0.026,103.0,102.0,102.0,13.3,1505.2,327.8,-0.8,1.8,2470.928,13.29,0.02,110.2
2022-07-27T02:19:03,42.805,6.029,0.015,-0.011,-0.019,103.0,103.0,100.0,13.3,1505.2,330.5,-0.7,1.8,2470.852,13.29,0.018,126.3
2022-07-27T02:22:03,42.805,6.029,-0.013,-0.021,-0.039,102.0,102.0,101.0,13.4,1505.2,324.5,-0.8,1.8,2470.94,13.29,0.024,211.8
2022-07-27T02:25:03,42.805,6.029,0.004,0.002,-0.039,102.0,101.0,100.0,13.3,1505.2,324.1,-0.8,1.8,2470.889,13.29,0.004,63.4
2022-07-27T02:28:03,42.805,6.029,-0.014,0.022,-0.054,102.0,101.0,102.0,13.4,1505.2,323.3,-0.7,1.8,2470.873,13.29,0.026,327.5
2022-07-27T02:31:03,42.805,6.029,0.027,0.01,-0.026,101.0,100.0,101.0,13.4,1505.2,333.4,-0.8,1.8,2470.876,13.29,0.028,69.7
2022-07-27T02:34:03,42.805,6.029,-0.01,0.02,-0.029,103.0,100.0,100.0,13.3,1505.2,320.1,-0.8,1.8,2470.851,13.29,0.022,333.4
2022-07-27T02:37:03,42.805,6.029,-0.005,0.025,0.024,101.0,103.0,100.0,13.4,1505.2,333.9,-0.8,1.8,2470.913,13.29,0.025,348.7
2022-07-27T02:40:03,42.805,6.029,0.017,0.023,-0.01,103.0,101.0,102.0,13.4,1505.2,332.1,-0.8,1.8,2470.869,13.29,0.028,36.5
2022-07-27T02:43:03,42.805,6.029,0.026,0.019,-0.047,103.0,102.0,101.0,13.4,1505.2,323.7,-0.8,1.8,2470.887,13.29,0.032,53.8
2022-07-27T02:46:03,42.805,6.029,-0.005,0.026,-0.02,103.0,104.0,100.0,13.4,1505.2,327.1,-0.8,1.8,2470.935,13.29,0.026,349.1
2022-07-27T02:49:03,42.805,6.029,0.011,-0.006,-0.02,100.0,102.0,100.0,13.3,1505.2,329.6,-0.8,1.8,2470.897,13.29,0.012,118.6
2022-07-27T02:52:03,42.805,6.029,0.006,0.009,-0.016,102.0,102.0,101.0,13.3,1505.2,319.8,-0.8,1.8,2470.903,13.29,0.01,33.7
2022-07-27T02:55:03,42.805,6.029,0.013,-0.006,-0.025,102.0,101.0,99.0,13.4,1505.2,329.3,-0.8,1.8,2470.918,13.29,0.014,114.8
2022-07-27T02:58:03,42.805,6.029,-0.015,-0.001,-0.052,100.0,102.0,99.0,13.4,1505.2,320.6,-0.8,1.8,2470.914,13.29,0.015,266.2
2022-07-27T03:04:03,42.805,6.029,0.005,-0.004,-0.012,100.0,105.0,99.0,13.3,1505.2,329.1,-0.7,1.8,2470.929,13.29,0.006,128.7
2022-07-27T03:07:03,42.805,6.029,0.013,0.007,-0.014,102.0,102.0,100.0,13.4,1505.2,328.1,-0.7,1.8,2470.928,13.29,0.014,61.7
2022-07-27T03:10:03,42.805,6.029,0.007,0.0,-0.038,101.0,102.0,101.0,13.4,1505.2,328.1,-0.7,1.8,2470.946,13.29,0.007,90.0
2022-07-27T03:13:03,42.805,6.029,-0.019,0.01,-0.033,100.0,101.0,101.0,13.3,1505.2,320.1,-0.7,1.8,2470.926,13.29,0.021,297.8
2022-07-27T03:16:03,42.805,6.029,-0.009,0.024,-0.028,102.0,101.0,101.0,13.4,1505.2,320.1,-0.7,1.8,2470.938,13.29,0.025,339.4
2022-07-27T03:19:03,42.805,6.029,0.013,0.001,-0.021,103.0,101.0,100.0,13.3,1505.2,328.9,-0.8,1.8,2470.875,13.29,0.013,85.6
2022-07-27T03:22:03,42.805,6.029,0.0,0.013,0.024,101.0,100.0,101.0,13.3,1505.2,323.1,-0.7,1.8,2470.908,13.29,0.013,0.0
2022-07-27T03:25:03,42.805,6.029,0.016,0.026,-0.004,102.0,101.0,101.0,13.3,1505.2,329.1,-0.8,1.9,2470.849,13.29,0.03,31.6
2022-07-27T03:28:03,42.805,6.029,0.012,0.005,-0.026,102.0,101.0,101.0,13.4,1505.2,320.8,-0.8,1.8,2470.925,13.29,0.013,67.4
2022-07-27T03:31:03,42.805,6.029,0.03,0.019,-0.016,102.0,101.0,101.0,13.3,1505.2,324.1,-0.8,1.8,2470.868,13.29,0.035,57.7
2022-07-27T03:34:03,42.805,6.029,0.003,0.019,0.001,101.0,103.0,100.0,13.3,1505.2,319.0,-0.8,1.8,2470.947,13.29,0.019,9.0
2022-07-27T03:37:03,42.805,6.029,0.009,0.002,-0.007,107.0,101.0,101.0,13.4,1505.2,327.4,-0.7,1.8,2470.905,13.29,0.009,77.5
2022-07-27T03:40:03,42.805,6.029,-0.007,0.025,0.001,103.0,103.0,99.0,13.4,1505.2,326.3,-0.8,1.8,2470.885,13.29,0.025,344.4
2022-07-27T03:43:03,42.805,6.029,-0.001,0.017,-0.032,100.0,102.0,101.0,13.3,1505.2,319.4,-0.8,1.8,2470.875,13.29,0.017,356.6
2022-07-27T03:46:03,42.805,6.029,0.011,-0.005,-0.036,104.0,103.0,101.0,13.4,1505.2,325.5,-0.8,1.8,2470.887,13.29,0.012,114.4
2022-07-27T03:49:03,42.805,6.029,0.025,0.009,-0.022,102.0,101.0,100.0,13.4,1505.2,319.1,-0.8,1.8,2470.903,13.29,0.026,70.2
2022-07-27T03:52:03,42.805,6.029,0.007,0.01,-0.01,101.0,102.0,100.0,13.4,1505.2,325.8,-0.7,1.8,2470.912,13.29,0.012,35.0
2022-07-27T03:55:03,42.805,6.029,-0.001,0.0,-0.047,101.0,102.0,101.0,13.3,1505.2,330.2,-0.8,1.8,2470.874,13.29,0.001,270.0
2022-07-27T03:58:03,42.805,6.029,0.006,-0.004,-0.016,103.0,103.0,100.0,13.4,1505.2,327.9,-0.8,1.9,2470.904,13.29,0.007,123.7
2022-07-27T04:04:03,42.805,6.029,0.013,0.019,-0.012,101.0,101.0,100.0,13.4,1505.2,323.6,-0.7,1.8,2470.953,13.29,0.023,34.4
2022-07-27T04:07:03,42.805,6.029,-0.003,0.013,-0.016,101.0,102.0,100.0,13.4,1505.2,327.1,-0.8,1.8,2470.975,13.29,0.013,347.0
2022-07-27T04:10:03,42.805,6.029,0.006,0.02,0.005,99.0,102.0,102.0,13.4,1505.2,323.3,-0.7,1.9,2470.901,13.29,0.02,16.7
2022-07-27T04:13:03,42.805,6.029,0.001,0.004,-0.046,101.0,102.0,103.0,13.4,1505.2,327.9,-0.8,1.8,2470.944,13.29,0.004,14.0
2022-07-27T04:16:03,42.805,6.029,-0.004,0.032,0.009,101.0,102.0,100.0,13.3,1505.2,319.2,-0.8,1.8,2470.964,13.29,0.032,352.9
2022-07-27T04:19:03,42.805,6.029,-0.005,0.006,0.0,101.0,102.0,100.0,13.4,1505.2,324.3,-0.7,1.8,2470.96,13.29,0.007,320.2
2022-07-27T04:22:03,42.805,6.029,-0.001,-0.009,-0.069,101.0,103.0,100.0,13.4,1505.2,334.4,-0.8,1.8,2470.908,13.29,0.009,186.3
2022-07-27T04:25:03,42.805,6.029,0.026,0.004,0.0,104.0,102.0,99.0,13.4,1505.2,331.2,-0.8,1.8,2470.915,13.29,0.026,81.3
2022-07-27T04:28:03,42.805,6.029,0.006,0.023,-0.025,102.0,101.0,100.0,13.4,1505.2,333.4,-0.8,1.8,2470.892,13.29,0.023,14.6
2022-07-27T04:31:03,42.805,6.029,-0.026,0.021,-0.013,101.0,102.0,101.0,13.4,1505.2,324.1,-0.8,1.8,2470.901,13.29,0.033,308.9
2022-07-27T04:34:03,42.805,6.029,0.004,0.027,0.001,102.0,101.0,101.0,13.4,1505.2,329.1,-0.8,1.8,2470.923,13.29,0.027,8.4
2022-07-27T04:37:03,42.805,6.029,0.0,0.017,-0.011,100.0,102.0,100.0,13.4,1505.2,331.7,-0.8,1.8,2470.938,13.29,0.017,0.0
2022-07-27T04:40:03,42.805,6.029,0.008,0.012,-0.005,100.0,101.0,100.0,13.4,1505.2,325.3,-0.7,1.8,2470.947,13.29,0.014,33.7
2022-07-27T04:43:03,42.805,6.029,0.004,0.008,-0.042,101.0,104.0,99.0,13.4,1505.2,326.7,-0.7,1.8,2470.955,13.29,0.008,26.6
2022-07-27T04:46:03,42.805,6.029,-0.006,0.013,-0.054,103.0,101.0,100.0,13.4,1505.2,322.0,-0.7,1.8,2470.954,13.29,0.014,335.2
2022-07-27T04:49:03,42.805,6.029,-0.008,0.003,-0.042,100.0,105.0,99.0,13.4,1505.2,323.6,-0.7,1.8,2470.935,13.29,0.008,290.6
2022-07-27T04:52:03,42.805,6.029,0.014,0.003,-0.016,101.0,102.0,100.0,13.4,1505.2,333.6,-0.7,1.8,2470.938,13.29,0.014,77.9
2022-07-27T04:55:03,42.805,6.029,-0.014,0.023,-0.014,101.0,101.0,100.0,13.3,1505.2,322.5,-0.8,1.8,2470.955,13.29,0.026,328.7
2022-07-27T04:58:03,42.805,6.029,0.04,-0.007,-0.031,101.0,101.0,100.0,13.3,1505.2,321.5,-0.8,1.8,2470.954,13.29,0.04,99.9
2022-07-27T05:04:03,42.805,6.029,0.014,0.005,-0.009,102.0,102.0,100.0,13.3,1505.2,330.3,-0.8,1.8,2471.012,13.29,0.014,70.4
2022-07-27T05:07:03,42.805,6.029,0.02,0.016,0.003,100.0,102.0,101.0,13.3,1505.2,319.1,-0.8,1.8,2470.998,13.29,0.025,51.3
2022-07-27T05:10:03,42.805,6.029,0.006,0.015,-0.019,104.0,101.0,109.0,13.4,1505.2,330.3,-0.8,1.8,2470.962,13.29,0.016,21.8
2022-07-27T05:13:03,42.805,6.029,0.005,0.033,-0.008,102.0,100.0,103.0,13.4,1505.2,328.9,-0.8,1.8,2470.958,13.29,0.033,8.6
2022-07-27T05:16:03,42.805,6.029,-0.011,0.021,-0.019,101.0,100.0,102.0,13.4,1505.2,327.7,-0.7,1.8,2470.974,13.29,0.023,332.4
2022-07-27T05:19:03,42.805,6.029,0.012,0.0,-0.019,102.0,102.0,101.0,13.4,1505.2,327.2,-0.8,1.8,2470.968,13.29,0.012,90.0
2022-07-27T05:22:03,42.805,6.029,0.005,0.009,-0.015,104.0,102.0,100.0,13.4,1505.2,328.2,-0.8,1.8,2470.916,13.29,0.01,29.1
2022-07-27T05:25:03,42.805,6.029,0.019,0.006,-0.002,102.0,101.0,100.0,13.4,1505.2,332.9,-0.8,1.8,2470.936,13.29,0.019,72.5
2022-07-27T05:28:03,42.805,6.029,-0.024,0.023,-0.003,103.0,101.0,99.0,13.4,1505.2,319.6,-0.8,1.8,2470.947,13.29,0.033,313.8
2022-07-27T05:31:03,42.805,6.029,-0.02,0.03,-0.004,100.0,102.0,100.0,13.4,1505.2,329.5,-0.8,1.9,2470.957,13.29,0.036,326.3
2022-07-27T05:34:03,42.805,6.029,0.011,0.005,-0.013,101.0,101.0,101.0,13.4,1505.2,331.5,-0.8,1.8,2470.942,13.29,0.012,65.6
2022-07-27T05:37:03,42.805,6.029,0.009,-0.004,-0.053,101.0,102.0,100.0,13.4,1505.2,332.4,-0.7,1.8,2470.924,13.29,0.009,114.0
2022-07-27T05:40:03,42.805,6.029,0.015,0.007,-0.008,101.0,101.0,100.0,13.4,1505.2,333.4,-0.7,1.8,2470.917,13.29,0.016,65.0
2022-07-27T05:43:03,42.805,6.029,0.006,0.008,-0.009,101.0,102.0,100.0,13.3,1505.2,324.4,-0.7,1.8,2470.969,13.29,0.01,36.9
2022-07-27T05:46:03,42.805,6.029,0.007,0.014,-0.01,103.0,103.0,102.0,13.4,1505.2,323.7,-0.7,1.8,2470.923,13.29,0.015,26.6
2022-07-27T05:49:03,42.805,6.029,0.009,0.009,-0.003,101.0,103.0,100.0,13.3,1505.2,323.3,-0.8,1.8,2470.943,13.29,0.012,45.0
2022-07-27T05:52:03,42.805,6.029,0.036,-0.006,-0.027,102.0,102.0,99.0,13.3,1505.2,319.7,-0.7,1.8,2470.976,13.29,0.036,99.5
2022-07-27T05:55:03,42.805,6.029,0.025,0.009,0.007,102.0,102.0,99.0,13.3,1505.2,330.5,-0.8,1.8,2470.992,13.29,0.026,70.2
2022-07-27T05:58:03,42.805,6.029,-0.003,-0.002,-0.029,102.0,101.0,100.0,13.4,1505.2,320.8,-0.8,1.8,2470.934,13.3,0.003,236.3
2022-07-27T06:04:03,42.805,6.029,-0.01,0.024,-0.008,101.0,101.0,101.0,13.4,1505.2,331.6,-0.8,1.8,2471.006,13.29,0.026,337.4
2022-07-27T06:07:03,42.805,6.029,-0.004,0.024,-0.033,100.0,102.0,101.0,13.4,1505.2,327.8,-0.8,1.8,2470.987,13.29,0.024,350.5
2022-07-27T06:10:03,42.805,6.029,-0.006,0.026,-0.006,100.0,101.0,101.0,13.3,1505.2,328.4,-0.7,1.8,2470.97,13.29,0.026,347.0
2022-07-27T06:13:03,42.805,6.029,0.011,0.019,0.003,101.0,101.0,102.0,13.3,1505.2,329.6,-0.8,1.8,2470.956,13.29,0.021,30.1
2022-07-27T06:16:03,42.805,6.029,0.0,0.004,-0.01,101.0,102.0,100.0,13.3,1505.2,324.1,-0.8,1.8,2470.951,13.29,0.004,0.0
2022-07-27T06:19:03,42.805,6.029,-0.004,0.019,0.029,102.0,102.0,99.0,13.4,1505.2,327.2,-0.8,1.8,2470.956,13.29,0.019,348.1
2022-07-27T06:22:03,42.805,6.029,0.001,0.005,-0.024,102.0,102.0,100.0,13.4,1505.2,319.9,-0.8,1.8,2470.975,13.29,0.005,11.3
2022-07-27T06:25:03,42.805,6.029,0.004,0.005,-0.02,103.0,103.0,99.0,13.4,1505.2,327.2,-0.8,1.8,2470.96,13.29,0.006,38.7
2022-07-27T06:28:03,42.805,6.029,-0.012,0.028,0.019,101.0,101.0,102.0,13.4,1505.2,320.4,-0.7,1.8,2470.961,13.29,0.03,336.8
2022-07-27T06:31:03,42.805,6.029,0.016,0.0,-0.001,101.0,102.0,101.0,13.3,1505.2,320.5,-0.8,1.8,2470.95,13.3,0.016,90.0
2022-07-27T06:34:03,42.805,6.029,0.02,0.027,0.002,103.0,102.0,99.0,13.4,1505.2,332.6,-0.8,1.8,2470.969,13.3,0.033,36.5
2022-07-27T06:37:03,42.805,6.029,-0.006,0.024,-0.022,102.0,100.0,100.0,13.4,1505.2,321.3,-0.7,1.8,2470.96,13.3,0.024,346.0
2022-07-27T06:40:03,42.805,6.029,0.003,0.014,0.001,100.0,101.0,101.0,13.3,1505.2,324.5,-0.8,1.8,2470.977,13.3,0.014,12.1
2022-07-27T06:43:03,42.805,6.029,-0.006,0.01,-0.027,100.0,102.0,100.0,13.3,1505.2,322.0,-0.8,1.8,2470.982,13.3,0.011,329.0
2022-07-27T06:46:03,42.805,6.029,0.009,-0.004,-0.005,101.0,101.0,101.0,13.4,1505.2,327.0,-0.8,1.8,2470.965,13.3,0.009,114.0
2022-07-27T06:49:03,42.805,6.029,0.011,0.007,-0.037,102.0,101.0,100.0,13.4,1505.2,331.0,-0.8,1.8,2470.972,13.3,0.013,57.5
2022-07-27T06:52:03,42.805,6.029,-0.01,0.0,-0.019,102.0,103.0,100.0,13.4,1505.2,332.2,-0.7,1.8,2470.974,13.3,0.01,270.0
2022-07-27T06:55:03,42.805,6.029,-0.021,0.028,-0.009,103.0,102.0,100.0,13.4,1505.2,325.2,-0.8,1.8,2470.99,13.3,0.035,323.1
2022-07-27T06:58:03,42.805,6.029,-0.009,0.02,0.011,101.0,102.0,99.0,13.3,1505.2,328.3,-0.8,1.9,2470.965,13.3,0.021,335.8
2022-07-27T07:04:03,42.805,6.029,0.014,0.019,-0.001,102.0,102.0,101.0,13.4,1505.2,320.9,-0.8,1.8,2471.011,13.29,0.023,36.4
2022-07-27T07:07:03,42.805,6.029,0.003,0.012,-0.032,101.0,103.0,99.0,13.4,1505.2,331.9,-0.8,1.8,2471.021,13.29,0.012,14.0
2022-07-27T07:10:03,42.805,6.029,-0.004,0.019,-0.015,101.0,101.0,100.0,13.4,1505.2,333.1,-0.8,1.8,2471.002,13.29,0.019,348.1
2022-07-27T07:13:03,42.805,6.029,0.009,-0.001,-0.038,102.0,102.0,102.0,13.4,1505.2,319.8,-0.8,1.8,2470.96,13.29,0.009,96.3
2022-07-27T07:16:03,42.805,6.029,0.0,0.025,-0.025,102.0,102.0,99.0,13.4,1505.2,327.9,-0.8,1.8,2470.965,13.29,0.025,0.0
2022-07-27T07:19:03,42.805,6.029,0.01,-0.005,-0.037,101.0,102.0,103.0,13.4,1505.2,321.4,-0.8,1.8,2470.965,13.29,0.011,116.6
2022-07-27T07:22:03,42.805,6.029,0.021,0.014,-0.01,103.0,100.0,101.0,13.4,1505.2,330.1,-0.8,1.8,2470.949,13.29,0.025,56.3
2022-07-27T07:25:03,42.805,6.029,0.006,0.016,-0.027,102.0,101.0,100.0,13.4,1505.2,332.7,-0.7,1.8,2470.982,13.3,0.017,20.6
2022-07-27T07:28:03,42.805,6.029,-0.012,0.02,-0.021,101.0,101.0,100.0,13.4,1505.2,319.0,-0.8,1.8,2471.018,13.3,0.023,329.0
2022-07-27T07:31:03,42.805,6.029,0.007,0.006,-0.034,101.0,102.0,101.0,13.3,1505.2,326.3,-0.8,1.8,2470.967,13.3,0.009,49.4
2022-07-27T07:34:03,42.805,6.029,0.0,0.011,-0.045,103.0,100.0,99.0,13.4,1505.2,324.9,-0.8,1.8,2470.962,13.3,0.011,0.0
2022-07-27T07:37:03,42.805,6.029,0.03,0.019,-0.002,101.0,102.0,101.0,13.4,1505.2,319.3,-0.7,1.8,2470.933,13.29,0.035,57.7
2022-07-27T07:40:03,42.805,6.029,0.019,0.023,-0.01,102.0,102.0,101.0,13.3,1505.2,326.9,-0.8,1.8,2470.966,13.29,0.029,39.6
2022-07-27T07:43:03,42.805,6.029,0.014,0.0,-0.032,101.0,102.0,100.0,13.4,1505.2,328.9,-0.7,1.8,2470.923,13.29,0.014,90.0
2022-07-27T07:46:03,42.805,6.029,0.03,0.02,0.015,101.0,101.0,100.0,13.3,1505.2,331.2,-0.8,1.8,2470.928,13.29,0.036,56.3
2022-07-27T07:49:03,42.805,6.029,0.003,0.016,-0.023,100.0,102.0,100.0,13.4,1505.2,321.4,-0.8,1.8,2470.94,13.3,0.016,10.6
2022-07-27T07:52:03,42.805,6.029,0.013,0.005,-0.008,102.0,102.0,100.0,13.4,1505.2,323.8,-0.8,1.8,2470.968,13.3,0.013,69.0
2022-07-27T07:55:03,42.805,6.029,-0.005,0.034,-0.01,102.0,102.0,101.0,13.4,1505.2,328.9,-0.7,1.8,2470.939,13.3,0.034,351.6
2022-07-27T07:58:03,42.805,6.029,0.032,0.02,-0.001,102.0,101.0,101.0,13.4,1505.2,318.9,-0.8,1.8,2470.908,13.3,0.037,58.0
2022-07-27T08:01:03,42.805,6.029,0.017,0.008,-0.025,101.0,102.0,99.0,13.4,1505.2,318.9,-0.7,1.8,2470.941,13.3,0.018,64.8
2022-07-27T08:04:03,42.805,6.029,0.027,0.015,-0.042,102.0,102.0,100.0,13.4,1505.2,323.0,-0.7,1.8,2470.939,13.3,0.03,60.9
2022-07-27T08:07:03,42.805,6.029,0.014,0.004,0.0,102.0,103.0,100.0,13.3,1505.2,331.9,-0.8,1.8,2470.905,13.3,0.014,74.1
2022-07-27T08:10:03,42.805,6.029,0.0,0.01,0.005,100.0,102.0,101.0,13.3,1505.2,324.7,-0.7,1.8,2470.971,13.3,0.01,0.0
2022-07-27T08:13:03,42.805,6.029,-0.024,0.033,0.005,102.0,101.0,100.0,13.4,1505.2,325.5,-0.8,1.8,2470.974,13.3,0.04,324.0
2022-07-27T08:16:03,42.805,6.029,-0.008,0.017,-0.013,101.0,101.0,101.0,13.4,1505.2,320.4,-0.8,1.8,2470.939,13.3,0.018,334.8
2022-07-27T08:19:03,42.805,6.029,0.022,-0.002,-0.012,101.0,101.0,100.0,13.3,1505.2,332.1,-0.8,1.8,2470.936,13.3,0.022,95.2
2022-07-27T08:22:03,42.805,6.029,-0.002,0.004,-0.017,101.0,101.0,100.0,13.4,1505.2,328.9,-0.7,1.8,2470.908,13.3,0.004,333.4
2022-07-27T08:25:03,42.805,6.029,0.005,0.007,-0.02,102.0,101.0,100.0,13.4,1505.2,329.6,-0.8,1.9,2470.914,13.3,0.008,35.5
2022-07-27T08:28:03,42.805,6.029,-0.01,0.0,-0.013,102.0,101.0,100.0,13.3,1505.2,328.2,-0.8,1.8,2470.949,13.3,0.01,270.0
2022-07-27T08:31:03,42.805,6.029,-0.011,0.026,-0.015,102.0,102.0,100.0,13.3,1505.2,323.6,-0.8,1.8,2470.933,13.3,0.028,337.1
2022-07-27T08:34:03,42.805,6.029,0.009,0.014,-0.009,101.0,101.0,100.0,13.4,1505.2,329.7,-0.8,1.9,2470.909,13.3,0.016,32.7
2022-07-27T08:37:03,42.805,6.029,0.012,0.016,-0.027,101.0,101.0,100.0,13.4,1505.2,320.4,-0.8,1.8,2470.912,13.3,0.02,36.9
2022-07-27T08:40:03,42.805,6.029,0.01,0.005,0.0,102.0,103.0,100.0,13.4,1505.2,325.8,-0.7,1.8,2470.88,13.3,0.011,63.4
2022-07-27T08:43:03,42.805,6.029,-0.002,0.028,-0.027,102.0,102.0,99.0,13.4,1505.2,324.1,-0.8,1.8,2470.894,13.3,0.028,355.9
2022-07-27T08:46:03,42.805,6.029,0.006,0.019,-0.015,101.0,101.0,101.0,13.3,1505.2,328.2,-0.7,1.8,2470.871,13.3,0.019,17.5
2022-07-27T08:49:03,42.805,6.029,0.002,0.014,-0.005,100.0,102.0,100.0,13.4,1505.2,323.1,-0.7,1.8,2470.924,13.3,0.014,8.1
2022-07-27T08:52:03,42.805,6.029,0.012,0.027,0.021,101.0,101.0,100.0,13.3,1505.2,331.8,-0.8,1.8,2470.918,13.3,0.029,24.0
2022-07-27T08:55:03,42.805,6.029,0.01,0.016,-0.017,101.0,102.0,100.0,13.4,1505.2,322.1,-0.8,1.8,2470.904,13.3,0.018,32.0
2022-07-27T08:58:03,42.805,6.029,0.003,0.02,0.0,102.0,101.0,100.0,13.3,1505.2,318.7,-0.8,1.8,2470.903,13.3,0.02,8.5
2022-07-27T09:04:03,42.805,6.029,0.015,0.022,-0.02,98.0,101.0,100.0,13.3,1505.2,330.8,-0.8,1.8,2470.944,13.29,0.026,34.3
2022-07-27T09:07:03,42.805,6.029,0.022,0.003,-0.009,100.0,102.0,100.0,13.4,1505.2,325.0,-0.8,1.8,2470.942,13.29,0.022,82.2
2022-07-27T09:10:03,42.805,6.029,0.005,0.021,-0.028,101.0,101.0,101.0,13.3,1505.2,324.9,-0.8,1.8,2470.96,13.29,0.021,13.4
2022-07-27T09:13:03,42.805,6.029,-0.016,0.03,-0.016,100.0,100.0,100.0,13.4,1505.2,329.6,-0.8,1.8,2470.945,13.29,0.034,331.9
2022-07-27T09:16:03,42.805,6.029,-0.013,0.011,-0.032,101.0,101.0,101.0,13.4,1505.2,320.3,-0.8,1.8,2470.936,13.29,0.017,310.2
2022-07-27T09:19:03,42.805,6.029,0.012,0.018,0.011,100.0,101.0,101.0,13.4,1505.2,330.1,-0.7,1.8,2470.891,13.29,0.021,33.7
2022-07-27T09:22:03,42.805,6.029,-0.006,0.01,-0.016,102.0,99.0,101.0,13.4,1505.2,326.1,-0.7,1.8,2470.861,13.29,0.011,329.0
2022-07-27T09:25:03,42.805,6.029,-0.01,0.034,-0.005,101.0,102.0,99.0,13.4,1505.2,323.1,-0.8,1.9,2470.907,13.29,0.035,343.6
2022-07-27T09:28:03,42.805,6.029,0.008,0.033,-0.012,101.0,102.0,100.0,13.3,1505.2,321.4,-0.8,1.8,2470.906,13.29,0.033,13.6
2022-07-27T09:31:03,42.805,6.029,0.023,0.011,0.003,100.0,102.0,100.0,13.4,1505.2,321.9,-0.8,1.8,2470.908,13.29,0.025,64.4
2022-07-27T09:34:03,42.805,6.029,0.01,0.008,-0.007,102.0,101.0,100.0,13.3,1505.2,325.0,-0.8,1.8,2470.887,13.29,0.012,51.3
2022-07-27T09:37:03,42.805,6.029,-0.002,0.025,-0.015,102.0,101.0,101.0,13.3,1505.2,319.6,-0.8,1.8,2470.877,13.29,0.025,355.4
2022-07-27T09:40:03,42.805,6.029,0.0,0.018,-0.005,101.0,101.0,100.0,13.3,1505.2,330.5,-0.7,1.8,2470.927,13.29,0.018,0.0
2022-07-27T09:43:03,42.805,6.029,0.001,0.024,-0.013,102.0,101.0,99.0,13.4,1505.2,319.0,-0.7,1.8,2470.898,13.29,0.024,2.4
2022-07-27T09:46:03,42.805,6.029,-0.021,0.036,-0.02,100.0,103.0,101.0,13.3,1505.2,328.3,-0.8,1.8,2470.851,13.29,0.041,329.7
2022-07-27T09:49:03,42.805,6.029,0.008,0.006,-0.038,101.0,100.0,99.0,13.4,1505.2,332.9,-0.7,1.8,2470.899,13.29,0.01,53.1
2022-07-27T09:52:03,42.805,6.029,-0.002,-0.005,-0.024,102.0,100.0,99.0,13.3,1505.2,322.8,-0.8,1.8,2470.861,13.29,0.005,201.8
2022-07-27T09:55:03,42.805,6.029,0.041,0.014,-0.009,101.0,100.0,100.0,13.3,1505.2,324.3,-0.8,1.8,2470.883,13.29,0.043,71.1
2022-07-27T09:58:03,42.805,6.029,-0.006,-0.001,-0.016,101.0,99.0,100.0,13.4,1505.2,318.6,-0.8,1.9,2470.871,13.29,0.006,260.5